This is the latest recevied weather packets stored in our database for station/object KA4YMY. If no packets are shown the sender has not sent any weather packets the latest 1 day(s).
| Time | Temp. | Humidity | Pressure | Rain* | Wind** | Luminosity | Snow |
|---|---|---|---|---|---|---|---|
| 1778060117 | 16.11° C | 77% | 1012.7 hPa | 0 mm | 0.45 m/s, 180° | - | - |
| 1778059517 | 16.11° C | 76% | 1012.7 hPa | 0 mm | 0.45 m/s, 180° | - | - |
| 1778058917 | 16.11° C | 76% | 1012.9 hPa | 0 mm | 0.45 m/s, 158° | - | - |
| 1778058317 | 16.67° C | 76% | 1013.1 hPa | 0 mm | 0.89 m/s, 180° | - | - |
| 1778057717 | 16.67° C | 75% | 1013.4 hPa | 0 mm | 0.45 m/s, 180° | - | - |
| 1778056517 | 16.67° C | 75% | 1013.4 hPa | 0 mm | 0.45 m/s, 158° | - | - |
| 1778055917 | 16.67° C | 75% | 1013.6 hPa | 0 mm | 0.45 m/s, 158° | - | - |
| 1778054717 | 16.67° C | 75% | 1013.6 hPa | 0 mm | 0.45 m/s, 158° | - | - |
| 1778054117 | 16.67° C | 75% | 1013.4 hPa | 0 mm | 0.45 m/s, 180° | - | - |
| 1778053517 | 16.67° C | 75% | 1013.4 hPa | 0 mm | 0.45 m/s, 180° | - | - |
| 1778052917 | 16.67° C | 75% | 1013.5 hPa | 0 mm | 0.45 m/s, 158° | - | - |
| 1778052317 | 17.22° C | 74% | 1013.6 hPa | 0 mm | 0.89 m/s, 158° | - | - |
| 1778051717 | 17.22° C | 74% | 1013.6 hPa | 0 mm | 0.89 m/s, 180° | - | - |
| 1778051117 | 17.22° C | 74% | 1013.7 hPa | 0 mm | 0.89 m/s, 158° | - | - |
| 1778050517 | 17.22° C | 73% | 1013.5 hPa | 0 mm | 0.89 m/s, 158° | - | - |
| 1778049917 | 17.22° C | 73% | 1013.2 hPa | 0 mm | 1.34 m/s, 158° | - | - |
| 1778049317 | 17.22° C | 72% | 1013.3 hPa | 0 mm | 1.34 m/s, 180° | - | - |
| 1778048717 | 17.78° C | 72% | 1013.6 hPa | 0 mm | 0.89 m/s, 135° | - | - |
| 1778048117 | 17.78° C | 72% | 1013.8 hPa | 0 mm | 0.89 m/s, 158° | - | - |
| 1778047517 | 17.78° C | 71% | 1014.1 hPa | 0 mm | 0.89 m/s, 158° | - | - |
| 1778046917 | 17.78° C | 70% | 1014.2 hPa | 0 mm | 1.34 m/s, 158° | - | - |
| 1778046317 | 17.78° C | 70% | 1014.1 hPa | 0 mm | 0.89 m/s, 135° | - | - |
| 1778045717 | 18.33° C | 69% | 1014.2 hPa | 0 mm | 1.34 m/s, 158° | - | - |
| 1778045117 | 18.33° C | 68% | 1014.1 hPa | 0 mm | 1.34 m/s, 158° | - | - |
| 1778044517 | 18.33° C | 68% | 1013.8 hPa | 0 mm | 0.89 m/s, 158° | - | - |
* Rain latest hour (hover to see other rain measurements)
** Current wind speed in m/s (hover to see current wind gust speed)